| State | Oklahoma | Latest | Good (1390 cfs) | |
| River | Illinois River | Rating | Observed | Estimated |
| Updated | 2026-05-05 5:30 (1 hour ago) | Flood - The river is flooding. Obstacles can be treacherous or deadly. The river should be avoided at this stage for casual trips and definitely for the inexperienced. Trips should be attempted only with protective gear and equipment.Flood | (none) | 3576 |
| Discharge | 1390 cfs (median: 1090 cfs) | High - The river is high and potentially dangerous, especially for the young and / or inexperienced. Normal stream obstacles are sometimes difficult to navigate. Extended distances can be attempted, but canoe travel may not be advisable.High | (none) | 1816 |
| Height | 6.4 feet | Good - Conditions are ideal for a canoe or kayak. Boats typically will drag on fewer than one-quarter of riffles, if at all, and portages are unnecessary or rare. Normal float lengths can be attempted without a problem.Good | 300 | 969 |
| Trend | Steady (falling over 24 hours) | Low - River is low but can still be floated. Some riffles are okay but most come with significant dragging and might need a portage. Float lengths should be reduced to accommodate low flow, dragging, and portages.Low | (none) | 623 |
| USGS | USGS Site ( Duck Duck Go Maps) | Poor - River is too low to float comfortably. Most or all riffles will drag or must be portaged and some obstacles (such as slick shelf rock) cause undue problems. Avoid the river at this stage for casual paddling trips.Poor | (none) | 244 |
A total of 1 rows are displayed.
| Miles | 6 |
| Trips | 1 |
| People | 2 |
| Dates | 1 |
| Years | 1 |
| Months | 1 |
| Rows | 1 |
| Sources | 1 |
BLG - Bluegill
CCF - Channel Catfish
CP - Chain Pickerel
FWD - Freshwater Drum
GSF - Green Sunfish
KSB - Kentucky Spotted Bass
LMB - Largemouth Bass
LSF - Longear Sunfish
RB - Rock Bass / Goggle Eye
RSF - Redear Sunfish
RT - Rainbow Trout
SMB - Smallmouth Bass
WB - White Bass
WF - Whitefish
WL - WalleyeThe classic River Trips application is still available for use. It is updated with the new system using a data retrofit. It is no longer maintained. The original River Trips application is no longer updated (as of 1 Dec 2016) but can be checked for errors or for the condition of the data before it was converted to the new system.
| Observation | Height | Discharge | Maximum Discharge | Minimum Discharge | Mean Discharge | P05 | P10 | P20 | P25 | P50 (Median) | P75 | P80 | P90 | P95 |
|---|---|---|---|---|---|---|---|---|---|---|---|---|---|---|
| 2026-05-05 05:30 | 6.40 | 1390 | 34500 (2022) | 204 (1936) | 2240 | 263 | 335 | 434 | 494 | 1090 | 2050 | 2540 | 4540 | 8040 |
| 2026-05-05 04:30 | 6.40 | 1390 | 34500 (2022) | 204 (1936) | 2240 | 263 | 335 | 434 | 494 | 1090 | 2050 | 2540 | 4540 | 8040 |
| 2026-05-05 03:30 | 6.41 | 1400 | 34500 (2022) | 204 (1936) | 2240 | 263 | 335 | 434 | 494 | 1090 | 2050 | 2540 | 4540 | 8040 |
| 2026-05-05 02:30 | 6.42 | 1410 | 34500 (2022) | 204 (1936) | 2240 | 263 | 335 | 434 | 494 | 1090 | 2050 | 2540 | 4540 | 8040 |
| 2026-05-05 01:30 | 6.41 | 1400 | 34500 (2022) | 204 (1936) | 2240 | 263 | 335 | 434 | 494 | 1090 | 2050 | 2540 | 4540 | 8040 |
| 2026-05-05 00:30 | 6.42 | 1410 | 34500 (2022) | 204 (1936) | 2240 | 263 | 335 | 434 | 494 | 1090 | 2050 | 2540 | 4540 | 8040 |
| 2026-05-04 23:30 | 6.43 | 1420 | 34500 (2022) | 204 (1936) | 2240 | 263 | 335 | 434 | 494 | 1090 | 2050 | 2540 | 4540 | 8040 |
| 2026-05-04 22:30 | 6.44 | 1430 | 43100 (1990) | 196 (1936) | 2320 | 274 | 335 | 450 | 550 | 1150 | 2490 | 2760 | 4530 | 8610 |
| 2026-05-04 21:30 | 6.44 | 1430 | 43100 (1990) | 196 (1936) | 2320 | 274 | 335 | 450 | 550 | 1150 | 2490 | 2760 | 4530 | 8610 |
| 2026-05-04 20:30 | 6.46 | 1460 | 43100 (1990) | 196 (1936) | 2320 | 274 | 335 | 450 | 550 | 1150 | 2490 | 2760 | 4530 | 8610 |
| 2026-05-04 19:30 | 6.46 | 1460 | 43100 (1990) | 196 (1936) | 2320 | 274 | 335 | 450 | 550 | 1150 | 2490 | 2760 | 4530 | 8610 |
| 2026-05-04 18:30 | 6.47 | 1470 | 43100 (1990) | 196 (1936) | 2320 | 274 | 335 | 450 | 550 | 1150 | 2490 | 2760 | 4530 | 8610 |
| 2026-05-04 17:30 | 6.48 | 1480 | 43100 (1990) | 196 (1936) | 2320 | 274 | 335 | 450 | 550 | 1150 | 2490 | 2760 | 4530 | 8610 |
| 2026-05-04 16:30 | 6.49 | 1490 | 43100 (1990) | 196 (1936) | 2320 | 274 | 335 | 450 | 550 | 1150 | 2490 | 2760 | 4530 | 8610 |
| 2026-05-04 15:30 | 6.52 | 1530 | 43100 (1990) | 196 (1936) | 2320 | 274 | 335 | 450 | 550 | 1150 | 2490 | 2760 | 4530 | 8610 |
| 2026-05-04 14:30 | 6.50 | 1500 | 43100 (1990) | 196 (1936) | 2320 | 274 | 335 | 450 | 550 | 1150 | 2490 | 2760 | 4530 | 8610 |
| 2026-05-04 13:30 | 6.53 | 1540 | 43100 (1990) | 196 (1936) | 2320 | 274 | 335 | 450 | 550 | 1150 | 2490 | 2760 | 4530 | 8610 |
| 2026-05-04 12:30 | 6.54 | 1550 | 43100 (1990) | 196 (1936) | 2320 | 274 | 335 | 450 | 550 | 1150 | 2490 | 2760 | 4530 | 8610 |
| 2026-05-04 11:30 | 6.54 | 1550 | 43100 (1990) | 196 (1936) | 2320 | 274 | 335 | 450 | 550 | 1150 | 2490 | 2760 | 4530 | 8610 |
| 2026-05-04 10:30 | 6.56 | 1580 | 43100 (1990) | 196 (1936) | 2320 | 274 | 335 | 450 | 550 | 1150 | 2490 | 2760 | 4530 | 8610 |
| 2026-05-04 09:30 | 6.56 | 1580 | 43100 (1990) | 196 (1936) | 2320 | 274 | 335 | 450 | 550 | 1150 | 2490 | 2760 | 4530 | 8610 |
| 2026-05-04 08:30 | 6.58 | 1600 | 43100 (1990) | 196 (1936) | 2320 | 274 | 335 | 450 | 550 | 1150 | 2490 | 2760 | 4530 | 8610 |
| 2026-05-04 07:30 | 6.58 | 1600 | 43100 (1990) | 196 (1936) | 2320 | 274 | 335 | 450 | 550 | 1150 | 2490 | 2760 | 4530 | 8610 |
| 2026-05-04 06:30 | 6.59 | 1610 | 43100 (1990) | 196 (1936) | 2320 | 274 | 335 | 450 | 550 | 1150 | 2490 | 2760 | 4530 | 8610 |
| 2026-05-04 05:30 | 6.60 | 1630 | 43100 (1990) | 196 (1936) | 2320 | 274 | 335 | 450 | 550 | 1150 | 2490 | 2760 | 4530 | 8610 |
| 2026-05-04 04:30 | 6.61 | 1640 | 43100 (1990) | 196 (1936) | 2320 | 274 | 335 | 450 | 550 | 1150 | 2490 | 2760 | 4530 | 8610 |
| 2026-05-04 03:30 | 6.61 | 1640 | 43100 (1990) | 196 (1936) | 2320 | 274 | 335 | 450 | 550 | 1150 | 2490 | 2760 | 4530 | 8610 |
| 2026-05-04 01:30 | 6.62 | 1650 | 43100 (1990) | 196 (1936) | 2320 | 274 | 335 | 450 | 550 | 1150 | 2490 | 2760 | 4530 | 8610 |
| 2026-05-04 00:30 | 6.65 | 1690 | 43100 (1990) | 196 (1936) | 2320 | 274 | 335 | 450 | 550 | 1150 | 2490 | 2760 | 4530 | 8610 |
| 2026-05-03 23:30 | 6.64 | 1680 | 43100 (1990) | 196 (1936) | 2320 | 274 | 335 | 450 | 550 | 1150 | 2490 | 2760 | 4530 | 8610 |
| 2026-05-03 22:30 | 6.66 | 1700 | 19800 (1990) | 189 (1936) | 2060 | 286 | 342 | 469 | 581 | 1110 | 2090 | 2770 | 5250 | 7670 |
| 2026-05-03 21:30 | 6.66 | 1700 | 19800 (1990) | 189 (1936) | 2060 | 286 | 342 | 469 | 581 | 1110 | 2090 | 2770 | 5250 | 7670 |
| 2026-05-03 20:30 | 6.68 | 1730 | 19800 (1990) | 189 (1936) | 2060 | 286 | 342 | 469 | 581 | 1110 | 2090 | 2770 | 5250 | 7670 |
| 2026-05-03 19:30 | 6.69 | 1740 | 19800 (1990) | 189 (1936) | 2060 | 286 | 342 | 469 | 581 | 1110 | 2090 | 2770 | 5250 | 7670 |
| 2026-05-03 18:30 | 6.70 | 1750 | 19800 (1990) | 189 (1936) | 2060 | 286 | 342 | 469 | 581 | 1110 | 2090 | 2770 | 5250 | 7670 |
| 2026-05-03 17:30 | 6.71 | 1770 | 19800 (1990) | 189 (1936) | 2060 | 286 | 342 | 469 | 581 | 1110 | 2090 | 2770 | 5250 | 7670 |
| 2026-05-03 16:30 | 6.72 | 1780 | 19800 (1990) | 189 (1936) | 2060 | 286 | 342 | 469 | 581 | 1110 | 2090 | 2770 | 5250 | 7670 |
| 2026-05-03 15:30 | 6.74 | 1810 | 19800 (1990) | 189 (1936) | 2060 | 286 | 342 | 469 | 581 | 1110 | 2090 | 2770 | 5250 | 7670 |
| 2026-05-03 14:30 | 6.75 | 1820 | 19800 (1990) | 189 (1936) | 2060 | 286 | 342 | 469 | 581 | 1110 | 2090 | 2770 | 5250 | 7670 |
| 2026-05-03 13:30 | 6.77 | 1850 | 19800 (1990) | 189 (1936) | 2060 | 286 | 342 | 469 | 581 | 1110 | 2090 | 2770 | 5250 | 7670 |
| 2026-05-03 12:30 | 6.78 | 1860 | 19800 (1990) | 189 (1936) | 2060 | 286 | 342 | 469 | 581 | 1110 | 2090 | 2770 | 5250 | 7670 |
| 2026-05-03 11:30 | 6.79 | 1880 | 19800 (1990) | 189 (1936) | 2060 | 286 | 342 | 469 | 581 | 1110 | 2090 | 2770 | 5250 | 7670 |
| 2026-05-03 10:30 | 6.79 | 1880 | 19800 (1990) | 189 (1936) | 2060 | 286 | 342 | 469 | 581 | 1110 | 2090 | 2770 | 5250 | 7670 |
| 2026-05-03 09:30 | 6.82 | 1920 | 19800 (1990) | 189 (1936) | 2060 | 286 | 342 | 469 | 581 | 1110 | 2090 | 2770 | 5250 | 7670 |
| 2026-05-03 08:30 | 6.83 | 1930 | 19800 (1990) | 189 (1936) | 2060 | 286 | 342 | 469 | 581 | 1110 | 2090 | 2770 | 5250 | 7670 |
| 2026-05-03 07:30 | 6.84 | 1950 | 19800 (1990) | 189 (1936) | 2060 | 286 | 342 | 469 | 581 | 1110 | 2090 | 2770 | 5250 | 7670 |
| 2026-05-03 06:30 | 6.85 | 1960 | 19800 (1990) | 189 (1936) | 2060 | 286 | 342 | 469 | 581 | 1110 | 2090 | 2770 | 5250 | 7670 |
| 2026-05-03 05:30 | 6.86 | 1980 | 19800 (1990) | 189 (1936) | 2060 | 286 | 342 | 469 | 581 | 1110 | 2090 | 2770 | 5250 | 7670 |
| 2026-05-03 04:30 | 6.87 | 1990 | 19800 (1990) | 189 (1936) | 2060 | 286 | 342 | 469 | 581 | 1110 | 2090 | 2770 | 5250 | 7670 |
| 2026-05-03 03:30 | 6.89 | 2020 | 19800 (1990) | 189 (1936) | 2060 | 286 | 342 | 469 | 581 | 1110 | 2090 | 2770 | 5250 | 7670 |
| 2026-05-03 02:30 | 6.91 | 2050 | 19800 (1990) | 189 (1936) | 2060 | 286 | 342 | 469 | 581 | 1110 | 2090 | 2770 | 5250 | 7670 |
| 2026-05-03 01:30 | 6.91 | 2050 | 19800 (1990) | 189 (1936) | 2060 | 286 | 342 | 469 | 581 | 1110 | 2090 | 2770 | 5250 | 7670 |
| 2026-05-03 00:30 | 6.90 | 2040 | 19800 (1990) | 189 (1936) | 2060 | 286 | 342 | 469 | 581 | 1110 | 2090 | 2770 | 5250 | 7670 |
| 2026-05-02 23:30 | 6.93 | 2080 | 19800 (1990) | 189 (1936) | 2060 | 286 | 342 | 469 | 581 | 1110 | 2090 | 2770 | 5250 | 7670 |
| 2026-05-02 22:30 | 6.94 | 2100 | 13800 (1970) | 189 (1936) | 1980 | 301 | 356 | 492 | 567 | 1000 | 2230 | 2980 | 4680 | 7530 |
| 2026-05-02 21:30 | 6.95 | 2110 | 13800 (1970) | 189 (1936) | 1980 | 301 | 356 | 492 | 567 | 1000 | 2230 | 2980 | 4680 | 7530 |
| 2026-05-02 20:30 | 6.96 | 2130 | 13800 (1970) | 189 (1936) | 1980 | 301 | 356 | 492 | 567 | 1000 | 2230 | 2980 | 4680 | 7530 |
| 2026-05-02 19:30 | 6.97 | 2140 | 13800 (1970) | 189 (1936) | 1980 | 301 | 356 | 492 | 567 | 1000 | 2230 | 2980 | 4680 | 7530 |
| 2026-05-02 18:30 | 6.98 | 2160 | 13800 (1970) | 189 (1936) | 1980 | 301 | 356 | 492 | 567 | 1000 | 2230 | 2980 | 4680 | 7530 |
| 2026-05-02 17:30 | 7.00 | 2190 | 13800 (1970) | 189 (1936) | 1980 | 301 | 356 | 492 | 567 | 1000 | 2230 | 2980 | 4680 | 7530 |
| 2026-05-02 16:30 | 7.01 | 2200 | 13800 (1970) | 189 (1936) | 1980 | 301 | 356 | 492 | 567 | 1000 | 2230 | 2980 | 4680 | 7530 |
| 2026-05-02 15:30 | 7.03 | 2230 | 13800 (1970) | 189 (1936) | 1980 | 301 | 356 | 492 | 567 | 1000 | 2230 | 2980 | 4680 | 7530 |
| 2026-05-02 14:30 | 7.05 | 2270 | 13800 (1970) | 189 (1936) | 1980 | 301 | 356 | 492 | 567 | 1000 | 2230 | 2980 | 4680 | 7530 |
| 2026-05-02 13:30 | 7.07 | 2300 | 13800 (1970) | 189 (1936) | 1980 | 301 | 356 | 492 | 567 | 1000 | 2230 | 2980 | 4680 | 7530 |
| 2026-05-02 12:30 | 7.09 | 2330 | 13800 (1970) | 189 (1936) | 1980 | 301 | 356 | 492 | 567 | 1000 | 2230 | 2980 | 4680 | 7530 |
| 2026-05-02 11:30 | 7.09 | 2330 | 13800 (1970) | 189 (1936) | 1980 | 301 | 356 | 492 | 567 | 1000 | 2230 | 2980 | 4680 | 7530 |
| 2026-05-02 10:30 | 7.11 | 2360 | 13800 (1970) | 189 (1936) | 1980 | 301 | 356 | 492 | 567 | 1000 | 2230 | 2980 | 4680 | 7530 |
| 2026-05-02 09:30 | 7.12 | 2380 | 13800 (1970) | 189 (1936) | 1980 | 301 | 356 | 492 | 567 | 1000 | 2230 | 2980 | 4680 | 7530 |
| 2026-05-02 08:30 | 7.15 | 2420 | 13800 (1970) | 189 (1936) | 1980 | 301 | 356 | 492 | 567 | 1000 | 2230 | 2980 | 4680 | 7530 |
| 2026-05-02 07:30 | 7.16 | 2440 | 13800 (1970) | 189 (1936) | 1980 | 301 | 356 | 492 | 567 | 1000 | 2230 | 2980 | 4680 | 7530 |
| 2026-05-02 06:30 | 7.18 | 2470 | 13800 (1970) | 189 (1936) | 1980 | 301 | 356 | 492 | 567 | 1000 | 2230 | 2980 | 4680 | 7530 |
| 2026-05-02 05:30 | 7.19 | 2490 | 13800 (1970) | 189 (1936) | 1980 | 301 | 356 | 492 | 567 | 1000 | 2230 | 2980 | 4680 | 7530 |
| 2026-05-02 04:30 | 7.22 | 2540 | 13800 (1970) | 189 (1936) | 1980 | 301 | 356 | 492 | 567 | 1000 | 2230 | 2980 | 4680 | 7530 |
| 2026-05-02 03:30 | 7.21 | 2520 | 13800 (1970) | 189 (1936) | 1980 | 301 | 356 | 492 | 567 | 1000 | 2230 | 2980 | 4680 | 7530 |
| 2026-05-02 02:30 | 7.25 | 2590 | 13800 (1970) | 189 (1936) | 1980 | 301 | 356 | 492 | 567 | 1000 | 2230 | 2980 | 4680 | 7530 |
| 2026-05-02 01:30 | 7.25 | 2590 | 13800 (1970) | 189 (1936) | 1980 | 301 | 356 | 492 | 567 | 1000 | 2230 | 2980 | 4680 | 7530 |
| 2026-05-02 00:30 | 7.28 | 2640 | 13800 (1970) | 189 (1936) | 1980 | 301 | 356 | 492 | 567 | 1000 | 2230 | 2980 | 4680 | 7530 |
| 2026-05-01 23:30 | 7.30 | 2670 | 13800 (1970) | 189 (1936) | 1980 | 301 | 356 | 492 | 567 | 1000 | 2230 | 2980 | 4680 | 7530 |
| 2026-05-01 22:30 | 7.31 | 2690 | 47900 (2017) | 182 (1936) | 2190 | 312 | 356 | 472 | 570 | 1170 | 2160 | 2390 | 3830 | 5220 |
| 2026-05-01 21:30 | 7.33 | 2730 | 47900 (2017) | 182 (1936) | 2190 | 312 | 356 | 472 | 570 | 1170 | 2160 | 2390 | 3830 | 5220 |
| 2026-05-01 20:30 | 7.36 | 2780 | 47900 (2017) | 182 (1936) | 2190 | 312 | 356 | 472 | 570 | 1170 | 2160 | 2390 | 3830 | 5220 |
| 2026-05-01 19:30 | 7.38 | 2810 | 47900 (2017) | 182 (1936) | 2190 | 312 | 356 | 472 | 570 | 1170 | 2160 | 2390 | 3830 | 5220 |
| 2026-05-01 18:30 | 7.38 | 2810 | 47900 (2017) | 182 (1936) | 2190 | 312 | 356 | 472 | 570 | 1170 | 2160 | 2390 | 3830 | 5220 |
| 2026-05-01 17:30 | 7.40 | 2850 | 47900 (2017) | 182 (1936) | 2190 | 312 | 356 | 472 | 570 | 1170 | 2160 | 2390 | 3830 | 5220 |
| 2026-05-01 16:30 | 7.44 | 2920 | 47900 (2017) | 182 (1936) | 2190 | 312 | 356 | 472 | 570 | 1170 | 2160 | 2390 | 3830 | 5220 |
| 2026-05-01 15:30 | 7.45 | 2940 | 47900 (2017) | 182 (1936) | 2190 | 312 | 356 | 472 | 570 | 1170 | 2160 | 2390 | 3830 | 5220 |
| 2026-05-01 14:30 | 7.48 | 2990 | 47900 (2017) | 182 (1936) | 2190 | 312 | 356 | 472 | 570 | 1170 | 2160 | 2390 | 3830 | 5220 |
| 2026-05-01 13:30 | 7.49 | 3010 | 47900 (2017) | 182 (1936) | 2190 | 312 | 356 | 472 | 570 | 1170 | 2160 | 2390 | 3830 | 5220 |
| 2026-05-01 12:30 | 7.52 | 3070 | 47900 (2017) | 182 (1936) | 2190 | 312 | 356 | 472 | 570 | 1170 | 2160 | 2390 | 3830 | 5220 |
| 2026-05-01 11:30 | 7.53 | 3090 | 47900 (2017) | 182 (1936) | 2190 | 312 | 356 | 472 | 570 | 1170 | 2160 | 2390 | 3830 | 5220 |
| 2026-05-01 10:30 | 7.57 | 3160 | 47900 (2017) | 182 (1936) | 2190 | 312 | 356 | 472 | 570 | 1170 | 2160 | 2390 | 3830 | 5220 |
| 2026-05-01 09:30 | 7.58 | 3180 | 47900 (2017) | 182 (1936) | 2190 | 312 | 356 | 472 | 570 | 1170 | 2160 | 2390 | 3830 | 5220 |
| 2026-05-01 08:30 | 7.60 | 3220 | 47900 (2017) | 182 (1936) | 2190 | 312 | 356 | 472 | 570 | 1170 | 2160 | 2390 | 3830 | 5220 |
| 2026-05-01 07:30 | 7.63 | 3270 | 47900 (2017) | 182 (1936) | 2190 | 312 | 356 | 472 | 570 | 1170 | 2160 | 2390 | 3830 | 5220 |
| 2026-05-01 06:30 | 7.67 | 3340 | 47900 (2017) | 182 (1936) | 2190 | 312 | 356 | 472 | 570 | 1170 | 2160 | 2390 | 3830 | 5220 |
| 2026-05-01 05:30 | 7.68 | 3360 | 47900 (2017) | 182 (1936) | 2190 | 312 | 356 | 472 | 570 | 1170 | 2160 | 2390 | 3830 | 5220 |
| 2026-05-01 04:30 | 7.70 | 3400 | 47900 (2017) | 182 (1936) | 2190 | 312 | 356 | 472 | 570 | 1170 | 2160 | 2390 | 3830 | 5220 |
| 2026-05-01 03:30 | 7.72 | 3440 | 47900 (2017) | 182 (1936) | 2190 | 312 | 356 | 472 | 570 | 1170 | 2160 | 2390 | 3830 | 5220 |
| 2026-05-01 02:30 | 7.76 | 3510 | 47900 (2017) | 182 (1936) | 2190 | 312 | 356 | 472 | 570 | 1170 | 2160 | 2390 | 3830 | 5220 |
| 2026-05-01 01:30 | 7.79 | 3570 | 47900 (2017) | 182 (1936) | 2190 | 312 | 356 | 472 | 570 | 1170 | 2160 | 2390 | 3830 | 5220 |
| 2026-05-01 00:30 | 7.82 | 3620 | 47900 (2017) | 182 (1936) | 2190 | 312 | 356 | 472 | 570 | 1170 | 2160 | 2390 | 3830 | 5220 |
| 2026-04-30 23:30 | 7.87 | 3720 | 47900 (2017) | 182 (1936) | 2190 | 312 | 356 | 472 | 570 | 1170 | 2160 | 2390 | 3830 | 5220 |
| 2026-04-30 22:30 | 7.91 | 3790 | 68600 (2017) | 179 (1954) | 2390 | 292 | 335 | 491 | 545 | 994 | 1990 | 2290 | 3140 | 5520 |
| 2026-04-30 21:30 | 7.96 | 3880 | 68600 (2017) | 179 (1954) | 2390 | 292 | 335 | 491 | 545 | 994 | 1990 | 2290 | 3140 | 5520 |
| 2026-04-30 20:30 | 7.98 | 3920 | 68600 (2017) | 179 (1954) | 2390 | 292 | 335 | 491 | 545 | 994 | 1990 | 2290 | 3140 | 5520 |
| 2026-04-30 19:30 | 8.03 | 4010 | 68600 (2017) | 179 (1954) | 2390 | 292 | 335 | 491 | 545 | 994 | 1990 | 2290 | 3140 | 5520 |
| 2026-04-30 18:30 | 8.08 | 4110 | 68600 (2017) | 179 (1954) | 2390 | 292 | 335 | 491 | 545 | 994 | 1990 | 2290 | 3140 | 5520 |
| 2026-04-30 17:30 | 8.11 | 4170 | 68600 (2017) | 179 (1954) | 2390 | 292 | 335 | 491 | 545 | 994 | 1990 | 2290 | 3140 | 5520 |
| 2026-04-30 16:30 | 8.17 | 4280 | 68600 (2017) | 179 (1954) | 2390 | 292 | 335 | 491 | 545 | 994 | 1990 | 2290 | 3140 | 5520 |
| 2026-04-30 15:30 | 8.21 | 4350 | 68600 (2017) | 179 (1954) | 2390 | 292 | 335 | 491 | 545 | 994 | 1990 | 2290 | 3140 | 5520 |
| 2026-04-30 14:30 | 8.25 | 4430 | 68600 (2017) | 179 (1954) | 2390 | 292 | 335 | 491 | 545 | 994 | 1990 | 2290 | 3140 | 5520 |
| 2026-04-30 13:30 | 8.31 | 4540 | 68600 (2017) | 179 (1954) | 2390 | 292 | 335 | 491 | 545 | 994 | 1990 | 2290 | 3140 | 5520 |
| 2026-04-30 12:30 | 8.38 | 4680 | 68600 (2017) | 179 (1954) | 2390 | 292 | 335 | 491 | 545 | 994 | 1990 | 2290 | 3140 | 5520 |
| 2026-04-30 11:30 | 8.41 | 4740 | 68600 (2017) | 179 (1954) | 2390 | 292 | 335 | 491 | 545 | 994 | 1990 | 2290 | 3140 | 5520 |
| 2026-04-30 10:30 | 8.50 | 4910 | 68600 (2017) | 179 (1954) | 2390 | 292 | 335 | 491 | 545 | 994 | 1990 | 2290 | 3140 | 5520 |
| 2026-04-30 09:30 | 8.54 | 4990 | 68600 (2017) | 179 (1954) | 2390 | 292 | 335 | 491 | 545 | 994 | 1990 | 2290 | 3140 | 5520 |
| 2026-04-30 08:30 | 8.64 | 5180 | 68600 (2017) | 179 (1954) | 2390 | 292 | 335 | 491 | 545 | 994 | 1990 | 2290 | 3140 | 5520 |
| 2026-04-30 07:30 | 8.71 | 5320 | 68600 (2017) | 179 (1954) | 2390 | 292 | 335 | 491 | 545 | 994 | 1990 | 2290 | 3140 | 5520 |
| 2026-04-30 06:30 | 8.76 | 5420 | 68600 (2017) | 179 (1954) | 2390 | 292 | 335 | 491 | 545 | 994 | 1990 | 2290 | 3140 | 5520 |
| 2026-04-30 05:30 | 8.87 | 5630 | 68600 (2017) | 179 (1954) | 2390 | 292 | 335 | 491 | 545 | 994 | 1990 | 2290 | 3140 | 5520 |
| 2026-04-30 04:30 | 8.95 | 5790 | 68600 (2017) | 179 (1954) | 2390 | 292 | 335 | 491 | 545 | 994 | 1990 | 2290 | 3140 | 5520 |
| 2026-04-30 03:30 | 9.03 | 5950 | 68600 (2017) | 179 (1954) | 2390 | 292 | 335 | 491 | 545 | 994 | 1990 | 2290 | 3140 | 5520 |
| 2026-04-30 02:30 | 9.10 | 6090 | 68600 (2017) | 179 (1954) | 2390 | 292 | 335 | 491 | 545 | 994 | 1990 | 2290 | 3140 | 5520 |
| 2026-04-30 01:30 | 9.12 | 6130 | 68600 (2017) | 179 (1954) | 2390 | 292 | 335 | 491 | 545 | 994 | 1990 | 2290 | 3140 | 5520 |
| 2026-04-30 00:30 | 9.14 | 6170 | 68600 (2017) | 179 (1954) | 2390 | 292 | 335 | 491 | 545 | 994 | 1990 | 2290 | 3140 | 5520 |
| 2026-04-29 23:30 | 9.09 | 6070 | 68600 (2017) | 179 (1954) | 2390 | 292 | 335 | 491 | 545 | 994 | 1990 | 2290 | 3140 | 5520 |
| 2026-04-29 22:30 | 9.02 | 5930 | 37400 (2021) | 128 (1954) | 2030 | 293 | 348 | 456 | 569 | 965 | 1610 | 1840 | 3500 | 7060 |
| 2026-04-29 21:30 | 8.87 | 5630 | 37400 (2021) | 128 (1954) | 2030 | 293 | 348 | 456 | 569 | 965 | 1610 | 1840 | 3500 | 7060 |
| 2026-04-29 20:30 | 8.73 | 5360 | 37400 (2021) | 128 (1954) | 2030 | 293 | 348 | 456 | 569 | 965 | 1610 | 1840 | 3500 | 7060 |
| 2026-04-29 19:30 | 8.59 | 5080 | 37400 (2021) | 128 (1954) | 2030 | 293 | 348 | 456 | 569 | 965 | 1610 | 1840 | 3500 | 7060 |
| 2026-04-29 18:30 | 8.50 | 4910 | 37400 (2021) | 128 (1954) | 2030 | 293 | 348 | 456 | 569 | 965 | 1610 | 1840 | 3500 | 7060 |
| 2026-04-29 17:30 | 8.42 | 4760 | 37400 (2021) | 128 (1954) | 2030 | 293 | 348 | 456 | 569 | 965 | 1610 | 1840 | 3500 | 7060 |
| 2026-04-29 16:30 | 8.39 | 4700 | 37400 (2021) | 128 (1954) | 2030 | 293 | 348 | 456 | 569 | 965 | 1610 | 1840 | 3500 | 7060 |
| 2026-04-29 15:30 | 8.35 | 4620 | 37400 (2021) | 128 (1954) | 2030 | 293 | 348 | 456 | 569 | 965 | 1610 | 1840 | 3500 | 7060 |
| 2026-04-29 14:30 | 8.29 | 4510 | 37400 (2021) | 128 (1954) | 2030 | 293 | 348 | 456 | 569 | 965 | 1610 | 1840 | 3500 | 7060 |
| 2026-04-29 13:30 | 8.22 | 4370 | 37400 (2021) | 128 (1954) | 2030 | 293 | 348 | 456 | 569 | 965 | 1610 | 1840 | 3500 | 7060 |
| 2026-04-29 12:30 | 8.17 | 4280 | 37400 (2021) | 128 (1954) | 2030 | 293 | 348 | 456 | 569 | 965 | 1610 | 1840 | 3500 | 7060 |
| 2026-04-29 11:30 | 8.16 | 4260 | 37400 (2021) | 128 (1954) | 2030 | 293 | 348 | 456 | 569 | 965 | 1610 | 1840 | 3500 | 7060 |
| 2026-04-29 10:30 | 8.17 | 4280 | 37400 (2021) | 128 (1954) | 2030 | 293 | 348 | 456 | 569 | 965 | 1610 | 1840 | 3500 | 7060 |
| 2026-04-29 09:30 | 8.21 | 4350 | 37400 (2021) | 128 (1954) | 2030 | 293 | 348 | 456 | 569 | 965 | 1610 | 1840 | 3500 | 7060 |
| 2026-04-29 08:30 | 8.20 | 4340 | 37400 (2021) | 128 (1954) | 2030 | 293 | 348 | 456 | 569 | 965 | 1610 | 1840 | 3500 | 7060 |
| 2026-04-29 07:30 | 8.25 | 4430 | 37400 (2021) | 128 (1954) | 2030 | 293 | 348 | 456 | 569 | 965 | 1610 | 1840 | 3500 | 7060 |
| 2026-04-29 06:30 | 8.30 | 4530 | 37400 (2021) | 128 (1954) | 2030 | 293 | 348 | 456 | 569 | 965 | 1610 | 1840 | 3500 | 7060 |
| 2026-04-29 05:30 | 8.35 | 4620 | 37400 (2021) | 128 (1954) | 2030 | 293 | 348 | 456 | 569 | 965 | 1610 | 1840 | 3500 | 7060 |
| 2026-04-29 04:30 | 8.39 | 4700 | 37400 (2021) | 128 (1954) | 2030 | 293 | 348 | 456 | 569 | 965 | 1610 | 1840 | 3500 | 7060 |
| 2026-04-29 03:30 | 8.42 | 4760 | 37400 (2021) | 128 (1954) | 2030 | 293 | 348 | 456 | 569 | 965 | 1610 | 1840 | 3500 | 7060 |
| 2026-04-29 02:30 | 8.43 | 4780 | 37400 (2021) | 128 (1954) | 2030 | 293 | 348 | 456 | 569 | 965 | 1610 | 1840 | 3500 | 7060 |
| 2026-04-29 01:30 | 8.41 | 4740 | 37400 (2021) | 128 (1954) | 2030 | 293 | 348 | 456 | 569 | 965 | 1610 | 1840 | 3500 | 7060 |
| 2026-04-29 00:30 | 8.34 | 4600 | 37400 (2021) | 128 (1954) | 2030 | 293 | 348 | 456 | 569 | 965 | 1610 | 1840 | 3500 | 7060 |
| 2026-04-28 23:30 | 8.28 | 4490 | 37400 (2021) | 128 (1954) | 2030 | 293 | 348 | 456 | 569 | 965 | 1610 | 1840 | 3500 | 7060 |
| 2026-04-28 22:30 | 8.23 | 4390 | 13200 (1942) | 132 (1954) | 1600 | 296 | 354 | 462 | 526 | 928 | 1760 | 1950 | 3460 | 4990 |
| 2026-04-28 21:30 | 8.21 | 4350 | 13200 (1942) | 132 (1954) | 1600 | 296 | 354 | 462 | 526 | 928 | 1760 | 1950 | 3460 | 4990 |
| 2026-04-28 20:30 | 8.13 | 4200 | 13200 (1942) | 132 (1954) | 1600 | 296 | 354 | 462 | 526 | 928 | 1760 | 1950 | 3460 | 4990 |
| 2026-04-28 19:30 | 8.07 | 4090 | 13200 (1942) | 132 (1954) | 1600 | 296 | 354 | 462 | 526 | 928 | 1760 | 1950 | 3460 | 4990 |
| 2026-04-28 18:30 | 8.04 | 4030 | 13200 (1942) | 132 (1954) | 1600 | 296 | 354 | 462 | 526 | 928 | 1760 | 1950 | 3460 | 4990 |
| 2026-04-28 17:30 | 8.01 | 3980 | 13200 (1942) | 132 (1954) | 1600 | 296 | 354 | 462 | 526 | 928 | 1760 | 1950 | 3460 | 4990 |
| 2026-04-28 16:30 | 7.93 | 3830 | 13200 (1942) | 132 (1954) | 1600 | 296 | 354 | 462 | 526 | 928 | 1760 | 1950 | 3460 | 4990 |
| 2026-04-28 15:30 | 7.95 | 3860 | 13200 (1942) | 132 (1954) | 1600 | 296 | 354 | 462 | 526 | 928 | 1760 | 1950 | 3460 | 4990 |
| 2026-04-28 14:30 | 7.98 | 3920 | 13200 (1942) | 132 (1954) | 1600 | 296 | 354 | 462 | 526 | 928 | 1760 | 1950 | 3460 | 4990 |
| 2026-04-28 13:30 | 8.01 | 3980 | 13200 (1942) | 132 (1954) | 1600 | 296 | 354 | 462 | 526 | 928 | 1760 | 1950 | 3460 | 4990 |
| 2026-04-28 12:30 | 8.04 | 4030 | 13200 (1942) | 132 (1954) | 1600 | 296 | 354 | 462 | 526 | 928 | 1760 | 1950 | 3460 | 4990 |
| 2026-04-28 11:30 | 8.07 | 4090 | 13200 (1942) | 132 (1954) | 1600 | 296 | 354 | 462 | 526 | 928 | 1760 | 1950 | 3460 | 4990 |
| 2026-04-28 10:30 | 8.11 | 4170 | 13200 (1942) | 132 (1954) | 1600 | 296 | 354 | 462 | 526 | 928 | 1760 | 1950 | 3460 | 4990 |
| 2026-04-28 09:30 | 8.13 | 4200 | 13200 (1942) | 132 (1954) | 1600 | 296 | 354 | 462 | 526 | 928 | 1760 | 1950 | 3460 | 4990 |
| 2026-04-28 08:30 | 8.17 | 4280 | 13200 (1942) | 132 (1954) | 1600 | 296 | 354 | 462 | 526 | 928 | 1760 | 1950 | 3460 | 4990 |
| 2026-04-28 07:30 | 8.21 | 4350 | 13200 (1942) | 132 (1954) | 1600 | 296 | 354 | 462 | 526 | 928 | 1760 | 1950 | 3460 | 4990 |
| 2026-04-28 06:30 | 8.25 | 4430 | 13200 (1942) | 132 (1954) | 1600 | 296 | 354 | 462 | 526 | 928 | 1760 | 1950 | 3460 | 4990 |
| 2026-04-28 05:30 | 8.30 | 4530 | 13200 (1942) | 132 (1954) | 1600 | 296 | 354 | 462 | 526 | 928 | 1760 | 1950 | 3460 | 4990 |
| 2026-04-28 04:30 | 8.36 | 4640 | 13200 (1942) | 132 (1954) | 1600 | 296 | 354 | 462 | 526 | 928 | 1760 | 1950 | 3460 | 4990 |
| 2026-04-28 02:30 | 8.43 | 4780 | 13200 (1942) | 132 (1954) | 1600 | 296 | 354 | 462 | 526 | 928 | 1760 | 1950 | 3460 | 4990 |
| 2026-04-28 01:30 | 8.49 | 4890 | 13200 (1942) | 132 (1954) | 1600 | 296 | 354 | 462 | 526 | 928 | 1760 | 1950 | 3460 | 4990 |
| 2026-04-28 00:30 | 8.53 | 4970 | 13200 (1942) | 132 (1954) | 1600 | 296 | 354 | 462 | 526 | 928 | 1760 | 1950 | 3460 | 4990 |
| 2026-04-27 23:30 | 8.59 | 5080 | 13200 (1942) | 132 (1954) | 1600 | 296 | 354 | 462 | 526 | 928 | 1760 | 1950 | 3460 | 4990 |
A total of 173 rows are displayed for years 1936 through 2024.